ROG5KK LERS-LEGE

Flight info

Callsign ROG5KK
Flight time 0h 53m
Altitude 10000
Route ARBEK N863 REBUL L110 MAMUK
Aircraft DA42/L-SBDFGRY/C

Departure

Time 2026-05-04 10:59
Airport Reus Airport (LERS)

Arrival

Time 2026-05-04 11:53
Airport Girona-Costa Brava Airport (LEGE)
Time Latitude Longitude Altitude Speed Heading
2026-05-04 10:34 41.14357 1.15051 235 ft 0 kts 68°
2026-05-04 10:54 41.14358 1.15053 236 ft 0 kts 83°
2026-05-04 10:56 41.14487 1.15259 235 ft 15 kts 68°
2026-05-04 10:56 41.14526 1.15397 235 ft 17 kts 68°
2026-05-04 10:56 41.14558 1.15496 235 ft 10 kts 60°
2026-05-04 10:57 41.14563 1.15552 236 ft 6 kts 137°
2026-05-04 10:57 41.14509 1.15582 236 ft 10 kts 159°
2026-05-04 10:57 41.14442 1.15623 236 ft 10 kts 134°
2026-05-04 10:57 41.14434 1.15671 236 ft 0 kts 69°
2026-05-04 10:58 41.14468 1.15793 236 ft 43 kts 67°
2026-05-04 10:58 41.14639 1.16362 245 ft 84 kts 70°
2026-05-04 10:59 41.14861 1.17108 422 ft 89 kts 73°
2026-05-04 10:59 41.15084 1.17876 652 ft 92 kts 71°
2026-05-04 10:59 41.15333 1.18703 831 ft 100 kts 71°
2026-05-04 10:59 41.15578 1.19579 1079 ft 100 kts 71°
2026-05-04 11:00 41.15832 1.20465 1319 ft 105 kts 71°
2026-05-04 11:01 41.17801 1.27162 3084 ft 108 kts 68°
2026-05-04 11:02 41.18077 1.28098 3330 ft 110 kts 68°
2026-05-04 11:02 41.18358 1.29053 3585 ft 114 kts 69°
2026-05-04 11:05 41.25631 1.32393 7751 ft 125 kts 293°
2026-05-04 11:06 41.26058 1.31414 8047 ft 119 kts 292°
2026-05-04 11:06 41.26464 1.30487 8341 ft 113 kts 291°
2026-05-04 11:06 41.26851 1.29600 8639 ft 109 kts 291°
2026-05-04 11:06 41.27222 1.28751 8940 ft 104 kts 290°
2026-05-04 11:08 41.29991 1.22386 9975 ft 151 kts 293°
2026-05-04 11:10 41.35144 1.14994 9968 ft 176 kts 351°
2026-05-04 11:12 41.43816 1.14092 9979 ft 181 kts 351°
2026-05-04 11:12 41.45071 1.13960 9977 ft 181 kts 350°
2026-05-04 11:12 41.46279 1.13831 9977 ft 181 kts 351°
2026-05-04 11:12 41.47586 1.13694 9981 ft 182 kts 351°
2026-05-04 11:13 41.48848 1.13562 9980 ft 182 kts 351°
2026-05-04 11:13 41.50106 1.13430 9979 ft 181 kts 351°
2026-05-04 11:13 41.51363 1.13297 9977 ft 182 kts 351°
2026-05-04 11:13 41.52610 1.13166 9976 ft 182 kts 351°
2026-05-04 11:14 41.53869 1.13033 9970 ft 182 kts 351°
2026-05-04 11:14 41.55146 1.12898 9974 ft 181 kts 351°
2026-05-04 11:14 41.56385 1.12770 9979 ft 180 kts 350°
2026-05-04 11:16 41.65119 1.11846 9975 ft 180 kts 350°
2026-05-04 11:16 41.66366 1.11713 9976 ft 180 kts 350°
2026-05-04 11:16 41.67624 1.11679 9970 ft 183 kts
2026-05-04 11:17 41.68820 1.12229 9972 ft 187 kts 29°
2026-05-04 11:17 41.69794 1.13408 9969 ft 187 kts 56°
2026-05-04 11:19 41.71795 1.24902 9948 ft 182 kts 84°
2026-05-04 11:19 41.72039 1.26560 9948 ft 182 kts 84°
2026-05-04 11:19 41.72283 1.28223 9946 ft 181 kts 84°
2026-05-04 11:19 41.72527 1.29882 9949 ft 182 kts 84°
2026-05-04 11:20 41.72769 1.31538 9950 ft 182 kts 84°
2026-05-04 11:20 41.73013 1.33207 9944 ft 182 kts 83°
2026-05-04 11:20 41.73257 1.34863 9953 ft 182 kts 84°
2026-05-04 11:20 41.73499 1.36522 9950 ft 180 kts 84°
2026-05-04 11:22 41.75179 1.48082 9954 ft 181 kts 84°
2026-05-04 11:22 41.75417 1.49724 9958 ft 182 kts 84°
2026-05-04 11:23 41.75659 1.51381 9949 ft 181 kts 84°
2026-05-04 11:23 41.75896 1.53025 9937 ft 178 kts 84°
2026-05-04 11:24 41.77339 1.63029 9949 ft 186 kts 84°
2026-05-04 11:25 41.77586 1.64731 9949 ft 186 kts 84°
2026-05-04 11:25 41.77834 1.66438 9950 ft 186 kts 84°
2026-05-04 11:25 41.78083 1.68145 9949 ft 187 kts 84°
2026-05-04 11:26 41.78576 1.71554 9944 ft 186 kts 84°
2026-05-04 11:27 41.80291 1.83448 9941 ft 186 kts 84°
2026-05-04 11:28 41.80535 1.85146 9945 ft 186 kts 84°
2026-05-04 11:28 41.80779 1.86852 9946 ft 186 kts 84°
2026-05-04 11:28 41.81023 1.88556 9948 ft 187 kts 85°
2026-05-04 11:28 41.81266 1.90260 9947 ft 186 kts 84°
2026-05-04 11:29 41.81511 1.91970 9934 ft 186 kts 84°
2026-05-04 11:29 41.81754 1.93677 9940 ft 186 kts 84°
2026-05-04 11:29 41.81996 1.95384 9938 ft 186 kts 84°
2026-05-04 11:29 41.82238 1.97076 9944 ft 185 kts 84°
2026-05-04 11:31 41.83951 2.08278 9960 ft 181 kts 76°
2026-05-04 11:33 41.86885 2.19592 9937 ft 184 kts 75°
2026-05-04 11:33 41.87304 2.21201 9942 ft 183 kts 75°
2026-05-04 11:33 41.87722 2.22815 9941 ft 183 kts 75°
2026-05-04 11:34 41.88139 2.24434 9942 ft 184 kts 76°
2026-05-04 11:34 41.88557 2.26056 9942 ft 184 kts 75°
2026-05-04 11:34 41.88977 2.27687 9944 ft 184 kts 75°
2026-05-04 11:34 41.89394 2.29300 9927 ft 184 kts 76°
2026-05-04 11:35 41.89812 2.30923 9929 ft 184 kts 76°
2026-05-04 11:35 41.90230 2.32549 9922 ft 185 kts 76°
2026-05-04 11:35 41.90650 2.34178 9929 ft 185 kts 76°
2026-05-04 11:35 41.91064 2.35810 9932 ft 185 kts 76°
2026-05-04 11:36 41.91485 2.37442 9932 ft 185 kts 76°
2026-05-04 11:36 41.91906 2.39072 9931 ft 185 kts 76°
2026-05-04 11:36 41.92327 2.40708 9930 ft 185 kts 76°
2026-05-04 11:36 41.92741 2.42318 9937 ft 184 kts 76°
2026-05-04 11:37 41.93156 2.43949 9936 ft 185 kts 76°
2026-05-04 11:37 41.93575 2.45593 9930 ft 186 kts 77°
2026-05-04 11:37 41.93995 2.47240 9938 ft 188 kts 77°
2026-05-04 11:37 41.94425 2.48927 9923 ft 191 kts 76°
2026-05-04 11:38 41.94858 2.50612 9807 ft 193 kts 76°
2026-05-04 11:38 41.95304 2.52355 9498 ft 201 kts 76°
2026-05-04 11:38 41.95762 2.54164 9196 ft 208 kts 75°
2026-05-04 11:38 41.96208 2.55920 8833 ft 214 kts 74°
2026-05-04 11:39 41.96695 2.57822 8428 ft 215 kts 73°
2026-05-04 11:39 41.97177 2.59705 8138 ft 213 kts 74°
2026-05-04 11:40 41.99886 2.70378 7198 ft 192 kts 73°
2026-05-04 11:41 42.00315 2.72079 7083 ft 191 kts 73°
2026-05-04 11:41 42.00736 2.73736 7004 ft 191 kts 73°
2026-05-04 11:41 42.01170 2.75437 6899 ft 192 kts 72°
2026-05-04 11:41 42.01598 2.77122 6802 ft 189 kts 73°
2026-05-04 11:42 42.02020 2.78798 6717 ft 189 kts 69°
2026-05-04 11:42 42.02740 2.80248 6664 ft 186 kts 44°
2026-05-04 11:42 42.03801 2.81199 6616 ft 182 kts 19°
2026-05-04 11:42 42.05004 2.81705 6558 ft 180 kts 12°
2026-05-04 11:43 42.06215 2.82170 6514 ft 182 kts 12°
2026-05-04 11:43 42.07427 2.82637 6463 ft 181 kts 12°
2026-05-04 11:43 42.08636 2.83105 6413 ft 180 kts 12°
2026-05-04 11:43 42.09843 2.83573 6368 ft 180 kts 12°
2026-05-04 11:44 42.11051 2.84043 6317 ft 181 kts 12°
2026-05-04 11:44 42.12255 2.84513 6262 ft 179 kts 12°
2026-05-04 11:44 42.13471 2.84980 6098 ft 184 kts 12°
2026-05-04 11:44 42.14730 2.85281 5903 ft 182 kts 351°
2026-05-04 11:45 42.15857 2.84656 5728 ft 173 kts 313°
2026-05-04 11:45 42.16407 2.83317 5557 ft 161 kts 274°
2026-05-04 11:45 42.16254 2.81871 5372 ft 156 kts 244°
2026-05-04 11:45 42.15557 2.80790 5217 ft 156 kts 214°
2026-05-04 11:46 42.14496 2.80398 5042 ft 164 kts 181°
2026-05-04 11:46 42.13410 2.80874 4878 ft 170 kts 156°
2026-05-04 11:46 42.12353 2.81676 4626 ft 174 kts 153°
2026-05-04 11:46 42.11313 2.82484 4372 ft 176 kts 154°
2026-05-04 11:47 42.10239 2.83243 4113 ft 170 kts 165°
2026-05-04 11:47 42.09106 2.83273 3865 ft 162 kts 195°
2026-05-04 11:47 42.08013 2.82927 3619 ft 161 kts 195°
2026-05-04 11:47 42.06949 2.82595 3589 ft 152 kts 193°
2026-05-04 11:48 42.05943 2.82155 3393 ft 152 kts 200°
2026-05-04 11:48 42.04952 2.81726 3194 ft 145 kts 198°
2026-05-04 11:48 42.04008 2.81339 3004 ft 139 kts 195°
2026-05-04 11:48 42.03087 2.80986 2831 ft 136 kts 195°
2026-05-04 11:49 42.02196 2.80648 2662 ft 132 kts 195°
2026-05-04 11:49 42.01323 2.80315 2483 ft 127 kts 195°
2026-05-04 11:49 42.00485 2.79997 2321 ft 125 kts 194°
2026-05-04 11:49 41.99637 2.79677 2149 ft 129 kts 193°
2026-05-04 11:50 41.98758 2.79341 1983 ft 133 kts 193°
2026-05-04 11:50 41.97853 2.79001 1800 ft 137 kts 193°
2026-05-04 11:50 41.96947 2.78658 1617 ft 137 kts 192°
2026-05-04 11:50 41.96033 2.78312 1440 ft 132 kts 192°
2026-05-04 11:51 41.95174 2.77986 1269 ft 129 kts 193°
2026-05-04 11:51 41.94340 2.77670 1097 ft 113 kts 193°
2026-05-04 11:51 41.93716 2.77426 949 ft 77 kts 191°
2026-05-04 11:51 41.93250 2.77244 840 ft 67 kts 190°
2026-05-04 11:52 41.92786 2.77048 780 ft 74 kts 195°
2026-05-04 11:52 41.92279 2.76869 744 ft 77 kts 189°
2026-05-04 11:52 41.91782 2.76686 601 ft 70 kts 189°
2026-05-04 11:52 41.91314 2.76521 492 ft 70 kts 193°
2026-05-04 11:53 41.90873 2.76346 460 ft 54 kts 191°
2026-05-04 11:53 41.90599 2.76252 453 ft 31 kts 196°
2026-05-04 11:53 41.90430 2.76188 448 ft 22 kts 197°
2026-05-04 11:53 41.90290 2.76135 442 ft 19 kts 193°
2026-05-04 11:55 41.90166 2.76451 419 ft 14 kts 283°
2026-05-04 11:55 41.90203 2.76333 416 ft 12 kts 346°
2026-05-04 11:56 41.90315 2.76373 420 ft 13 kts 20°
2026-05-04 11:56 41.90319 2.76461 419 ft 11 kts 102°
2026-05-04 11:56 41.90290 2.76554 419 ft 8 kts 171°
2026-05-04 11:56 41.90263 2.76545 414 ft 3 kts 197°
2026-05-04 11:57 41.90261 2.76544 414 ft 0 kts 196°